Time,TemperatureF,DewpointF,PressureIn,WindDirection,WindDirectionDegrees,WindSpeedMPH,WindSpeedGustMPH,Humidity,HourlyPrecipIn,Conditions,Clouds,dailyrainin,SoftwareType,DateUTC
2013-08-07 00:04:00,77.9,74.0,29.94,SSE,158,0.0,0.0,88,0.00,,,0.00,WSDL version 430,2013-08-07 05:04:00,
2013-08-07 00:09:00,77.6,73.7,29.94,West,270,0.0,1.1,88,0.00,,,0.00,WSDL version 430,2013-08-07 05:09:00,
2013-08-07 00:14:00,77.4,73.7,29.94,West,270,0.0,1.1,89,0.00,,,0.00,WSDL version 430,2013-08-07 05:14:00,
2013-08-07 00:19:00,77.2,73.6,29.94,West,270,0.0,0.0,89,0.00,,,0.00,WSDL version 430,2013-08-07 05:19:00,
2013-08-07 00:24:00,77.4,74.1,29.94,West,270,0.0,0.0,90,0.00,,,0.00,WSDL version 430,2013-08-07 05:24:00,
2013-08-07 00:29:00,78.0,74.9,29.94,SSE,158,0.0,0.0,90,0.00,,,0.00,WSDL version 430,2013-08-07 05:29:00,
2013-08-07 00:39:00,77.6,74.0,29.94,SSE,158,0.0,0.0,89,0.00,,,0.00,WSDL version 430,2013-08-07 05:39:00,
2013-08-07 00:44:00,77.3,73.8,29.94,SSE,158,0.0,0.0,89,0.00,,,0.00,WSDL version 430,2013-08-07 05:44:00,
2013-08-07 00:49:00,77.9,75.0,29.94,SSE,158,0.0,0.0,91,0.00,,,0.00,WSDL version 430,2013-08-07 05:49:00,
2013-08-07 00:54:00,78.4,75.2,29.94,SSE,158,0.0,0.0,90,0.00,,,0.00,WSDL version 430,2013-08-07 05:54:00,
2013-08-07 00:59:00,77.9,74.3,29.94,SSE,158,0.0,0.0,89,0.00,,,0.00,WSDL version 430,2013-08-07 05:59:00,
2013-08-07 01:04:00,77.8,74.4,29.94,SSE,158,0.0,0.0,89,0.00,,,0.00,WSDL version 430,2013-08-07 06:04:00,
2013-08-07 01:09:00,78.8,75.6,29.94,SSE,158,0.0,0.0,90,0.00,,,0.00,WSDL version 430,2013-08-07 06:09:00,
2013-08-07 01:14:00,78.5,74.6,29.94,SSE,158,0.0,0.0,88,0.00,,,0.00,WSDL version 430,2013-08-07 06:14:00,
2013-08-07 01:19:00,78.0,74.1,29.94,SSE,158,0.0,0.0,88,0.00,,,0.00,WSDL version 430,2013-08-07 06:19:00,
2013-08-07 01:24:00,78.4,74.7,29.91,SSE,158,0.0,0.0,89,0.00,,,0.00,WSDL version 430,2013-08-07 06:24:00,
2013-08-07 01:29:00,79.1,75.4,29.91,SSE,158,0.7,2.0,88,0.00,,,0.00,WSDL version 430,2013-08-07 06:29:00,
2013-08-07 01:34:00,78.6,74.5,29.91,SSE,158,0.0,2.0,87,0.00,,,0.00,WSDL version 430,2013-08-07 06:34:00,
2013-08-07 01:39:00,78.1,73.8,29.88,SSE,158,0.9,2.0,87,0.00,,,0.00,WSDL version 430,2013-08-07 06:39:00,
2013-08-07 01:44:00,77.6,73.7,29.88,SSE,158,0.0,2.0,88,0.00,,,0.00,WSDL version 430,2013-08-07 06:44:00,
2013-08-07 01:49:00,77.4,73.5,29.88,SSE,158,0.4,2.5,88,0.00,,,0.00,WSDL version 430,2013-08-07 06:49:00,
2013-08-07 01:54:00,77.1,73.6,29.88,SE,135,0.1,2.7,89,0.00,,,0.00,WSDL version 430,2013-08-07 06:54:00,
2013-08-07 01:59:00,76.9,73.6,29.88,SE,135,0.2,2.9,89,0.00,,,0.00,WSDL version 430,2013-08-07 06:59:00,
2013-08-07 02:04:00,77.5,74.6,29.88,SE,135,0.0,2.9,91,0.00,,,0.00,WSDL version 430,2013-08-07 07:04:00,
2013-08-07 02:09:00,78.1,75.1,29.88,SE,135,1.1,2.2,91,0.00,,,0.00,WSDL version 430,2013-08-07 07:09:00,
2013-08-07 02:14:00,77.6,74.2,29.88,ESE,113,0.2,2.5,89,0.00,,,0.00,WSDL version 430,2013-08-07 07:14:00,
2013-08-07 02:19:00,77.3,73.7,29.88,ESE,113,1.3,2.5,89,0.00,,,0.00,WSDL version 430,2013-08-07 07:19:00,
2013-08-07 02:24:00,76.9,73.7,29.88,ESE,113,0.0,2.5,90,0.00,,,0.00,WSDL version 430,2013-08-07 07:24:00,
2013-08-07 02:29:00,76.7,73.5,29.88,ESE,113,0.0,0.9,90,0.00,,,0.00,WSDL version 430,2013-08-07 07:29:00,
2013-08-07 02:34:00,76.6,73.9,29.88,ESE,113,0.1,2.7,91,0.00,,,0.00,WSDL version 430,2013-08-07 07:34:00,
2013-08-07 02:39:00,77.9,75.7,29.88,ESE,113,0.7,2.7,93,0.00,,,0.00,WSDL version 430,2013-08-07 07:39:00,
2013-08-07 02:44:00,77.9,75.0,29.88,ESE,113,1.3,3.6,91,0.00,,,0.00,WSDL version 430,2013-08-07 07:44:00,
2013-08-07 02:49:00,77.5,74.3,29.88,ESE,113,0.3,3.6,90,0.00,,,0.00,WSDL version 430,2013-08-07 07:49:00,
2013-08-07 02:54:00,77.2,74.0,29.88,ESE,113,0.1,2.9,90,0.00,,,0.00,WSDL version 430,2013-08-07 07:54:00,
2013-08-07 02:59:00,77.8,74.9,29.88,ESE,113,0.0,2.5,91,0.00,,,0.00,WSDL version 430,2013-08-07 07:59:00,
2013-08-07 03:04:00,77.8,74.7,29.88,ESE,113,0.0,0.0,90,0.00,,,0.00,WSDL version 430,2013-08-07 08:04:00,
2013-08-07 03:09:00,77.6,74.4,29.88,ESE,113,0.0,0.0,90,0.00,,,0.00,WSDL version 430,2013-08-07 08:09:00,
2013-08-07 03:14:00,78.4,75.7,29.88,SSE,158,0.0,0.0,91,0.00,,,0.00,WSDL version 430,2013-08-07 08:14:00,
2013-08-07 03:19:00,78.7,75.5,29.88,SSE,158,0.0,0.0,90,0.00,,,0.00,WSDL version 430,2013-08-07 08:19:00,
2013-08-07 03:24:00,78.2,74.6,29.88,SSE,158,0.0,0.0,89,0.00,,,0.00,WSDL version 430,2013-08-07 08:24:00,
2013-08-07 03:29:00,77.7,74.2,29.88,SSE,158,0.0,0.0,89,0.00,,,0.00,WSDL version 430,2013-08-07 08:29:00,
2013-08-07 03:34:00,78.0,74.9,29.88,SSE,158,0.0,0.0,90,0.00,,,0.00,WSDL version 430,2013-08-07 08:34:00,
2013-08-07 03:39:00,78.8,75.7,29.88,SSW,200,0.4,2.7,90,0.00,,,0.00,WSDL version 430,2013-08-07 08:39:00,
2013-08-07 03:44:00,78.4,74.9,29.88,SSW,203,0.0,2.7,89,0.00,,,0.00,WSDL version 430,2013-08-07 08:44:00,
2013-08-07 03:49:00,77.9,74.4,29.88,SSE,158,0.0,1.3,89,0.00,,,0.00,WSDL version 430,2013-08-07 08:49:00,
2013-08-07 03:54:00,78.1,74.8,29.88,SSE,158,0.0,0.9,90,0.00,,,0.00,WSDL version 430,2013-08-07 08:54:00,
2013-08-07 03:59:00,79.1,75.8,29.88,SSE,158,0.0,0.0,90,0.00,,,0.00,WSDL version 430,2013-08-07 08:59:00,
2013-08-07 04:04:00,78.7,74.8,29.88,SSE,158,0.0,0.0,88,0.00,,,0.00,WSDL version 430,2013-08-07 09:04:00,
2013-08-07 04:09:00,78.2,74.3,29.91,SSE,158,0.0,0.0,88,0.00,,,0.00,WSDL version 430,2013-08-07 09:09:00,
2013-08-07 04:14:00,77.8,74.0,29.91,SSE,158,0.0,0.0,88,0.00,,,0.00,WSDL version 430,2013-08-07 09:14:00,
2013-08-07 04:19:00,78.3,74.9,29.91,South,180,0.0,0.0,90,0.00,,,0.00,WSDL version 430,2013-08-07 09:19:00,
2013-08-07 04:24:00,78.6,75.1,29.91,South,180,0.0,0.0,89,0.00,,,0.00,WSDL version 430,2013-08-07 09:24:00,
2013-08-07 04:29:00,78.1,74.3,29.91,SSW,203,0.0,0.0,88,0.00,,,0.00,WSDL version 430,2013-08-07 09:29:00,
2013-08-07 04:34:00,77.7,74.0,29.91,SSW,203,0.0,0.0,88,0.00,,,0.00,WSDL version 430,2013-08-07 09:34:00,
2013-08-07 04:39:00,77.5,73.9,29.91,SSW,203,0.0,0.0,89,0.00,,,0.00,WSDL version 430,2013-08-07 09:39:00,
2013-08-07 04:44:00,77.4,74.1,29.91,WNW,293,1.2,3.6,89,0.00,,,0.00,WSDL version 430,2013-08-07 09:44:00,
2013-08-07 04:49:00,77.5,74.4,29.91,NNW,330,3.6,7.8,90,0.00,,,0.00,WSDL version 430,2013-08-07 09:49:00,
2013-08-07 04:54:00,77.1,72.3,29.97,WNW,299,9.2,17.4,85,0.00,,,0.00,WSDL version 430,2013-08-07 09:54:00,
2013-08-07 04:59:00,76.4,69.7,29.97,NE,34,5.8,17.4,80,0.00,,,0.00,WSDL version 430,2013-08-07 09:59:00,
2013-08-07 05:04:00,75.7,68.7,29.97,NW,320,8.1,15.7,79,0.00,,,0.00,WSDL version 430,2013-08-07 10:04:00,
2013-08-07 05:09:00,75.0,68.1,29.94,NW,322,7.1,16.1,79,0.00,,,0.00,WSDL version 430,2013-08-07 10:09:00,
2013-08-07 05:14:00,74.5,67.9,29.94,NW,321,7.7,16.1,80,0.00,,,0.00,WSDL version 430,2013-08-07 10:14:00,
2013-08-07 05:19:00,74.3,67.7,29.94,NW,322,7.6,14.8,80,0.00,,,0.00,WSDL version 430,2013-08-07 10:19:00,
2013-08-07 05:24:00,74.0,67.8,29.94,North,354,4.5,14.8,81,0.00,,,0.00,WSDL version 430,2013-08-07 10:24:00,
2013-08-07 05:29:00,73.8,67.7,29.94,NW,325,6.0,10.3,81,0.00,,,0.00,WSDL version 430,2013-08-07 10:29:00,
2013-08-07 05:34:00,73.6,67.8,29.94,NNW,338,4.6,9.6,82,0.00,,,0.00,WSDL version 430,2013-08-07 10:34:00,
2013-08-07 05:39:00,73.4,67.8,29.91,West,278,2.1,8.1,82,0.00,,,0.00,WSDL version 430,2013-08-07 10:39:00,
2013-08-07 05:44:00,73.4,68.0,29.91,WNW,288,2.9,6.0,83,0.00,,,0.00,WSDL version 430,2013-08-07 10:44:00,
2013-08-07 05:49:00,73.3,68.0,29.91,NW,317,1.7,6.0,84,0.00,,,0.00,WSDL version 430,2013-08-07 10:49:00,
2013-08-07 05:54:00,73.3,68.3,29.94,SE,140,1.4,3.8,84,0.00,,,0.00,WSDL version 430,2013-08-07 10:54:00,
2013-08-07 05:59:00,73.6,68.4,29.94,WNW,290,0.8,3.8,84,0.00,,,0.00,WSDL version 430,2013-08-07 10:59:00,
2013-08-07 06:04:00,73.5,68.1,29.94,SSE,158,0.7,3.1,83,0.00,,,0.00,WSDL version 430,2013-08-07 11:04:00,
2013-08-07 06:09:00,73.4,68.3,29.94,SSE,158,0.3,2.5,84,0.00,,,0.00,WSDL version 430,2013-08-07 11:09:00,
2013-08-07 06:14:00,74.0,69.3,29.94,SSE,158,0.0,2.5,85,0.00,,,0.00,WSDL version 430,2013-08-07 11:14:00,
2013-08-07 06:19:00,74.0,69.0,29.94,SSE,158,0.0,0.0,84,0.00,,,0.00,WSDL version 430,2013-08-07 11:19:00,
2013-08-07 06:24:00,73.7,68.5,29.97,SSE,158,0.6,1.6,84,0.00,,,0.00,WSDL version 430,2013-08-07 11:24:00,
2013-08-07 06:29:00,73.4,68.5,29.97,SSE,158,1.2,2.5,84,0.00,,,0.00,WSDL version 430,2013-08-07 11:29:00,
2013-08-07 06:34:00,73.3,68.6,29.97,SSE,158,0.0,2.5,85,0.00,,,0.00,WSDL version 430,2013-08-07 11:34:00,
2013-08-07 06:39:00,74.0,69.8,29.97,SSE,158,0.2,2.5,87,0.00,,,0.00,WSDL version 430,2013-08-07 11:39:00,
2013-08-07 06:44:00,74.0,69.5,29.97,SSE,158,0.0,2.5,86,0.00,,,0.00,WSDL version 430,2013-08-07 11:44:00,
2013-08-07 06:49:00,73.8,69.2,29.97,SSE,158,0.0,1.6,86,0.00,,,0.00,WSDL version 430,2013-08-07 11:49:00,
2013-08-07 06:54:00,73.8,69.4,29.97,SSE,158,0.0,1.6,86,0.00,,,0.00,WSDL version 430,2013-08-07 11:54:00,
2013-08-07 06:59:00,74.2,69.9,29.97,SSE,158,0.7,2.0,86,0.00,,,0.00,WSDL version 430,2013-08-07 11:59:00,
2013-08-07 07:04:00,73.9,69.2,29.97,SSE,158,1.2,2.2,86,0.00,,,0.00,WSDL version 430,2013-08-07 12:04:00,
2013-08-07 07:09:00,73.4,68.9,30.00,SSE,156,0.6,2.2,86,0.00,,,0.00,WSDL version 430,2013-08-07 12:09:00,
2013-08-07 07:14:00,73.0,69.0,30.00,NNE,25,3.1,5.4,87,0.00,,,0.00,WSDL version 430,2013-08-07 12:14:00,
2013-08-07 07:19:00,72.7,69.0,30.00,ENE,59,1.7,5.6,88,0.00,,,0.00,WSDL version 430,2013-08-07 12:19:00,
2013-08-07 07:24:00,72.5,69.1,30.00,NNW,329,2.5,5.6,89,0.00,,,0.00,WSDL version 430,2013-08-07 12:24:00,
2013-08-07 07:29:00,72.3,69.0,30.00,NW,313,1.4,4.9,89,0.00,,,0.00,WSDL version 430,2013-08-07 12:29:00,
2013-08-07 07:34:00,72.5,69.4,30.00,NE,49,2.6,6.9,90,0.00,,,0.00,WSDL version 430,2013-08-07 12:34:00,
2013-08-07 07:39:00,72.2,69.3,30.00,NE,54,3.4,6.9,91,0.00,,,0.00,WSDL version 430,2013-08-07 12:39:00,
2013-08-07 07:44:00,71.9,69.2,30.00,NE,52,2.5,9.6,91,0.00,,,0.00,WSDL version 430,2013-08-07 12:44:00,
2013-08-07 07:49:00,71.7,69.2,30.00,ENE,63,3.2,9.6,92,0.00,,,0.00,WSDL version 430,2013-08-07 12:49:00,
2013-08-07 07:54:00,71.6,69.2,30.00,NNE,31,1.0,8.5,92,0.00,,,0.00,WSDL version 430,2013-08-07 12:54:00,
2013-08-07 07:59:00,71.8,69.7,30.00,SE,135,1.4,4.3,93,0.00,,,0.00,WSDL version 430,2013-08-07 12:59:00,
2013-08-07 08:04:00,71.8,69.8,30.00,ESE,115,1.4,3.6,93,0.00,,,0.00,WSDL version 430,2013-08-07 13:04:00,
2013-08-07 08:09:00,71.6,69.6,30.03,SE,124,1.9,3.4,93,0.00,,,0.00,WSDL version 430,2013-08-07 13:09:00,
2013-08-07 08:14:00,71.6,69.6,30.03,ESE,113,1.1,3.4,94,0.00,,,0.00,WSDL version 430,2013-08-07 13:14:00,
2013-08-07 08:19:00,71.5,69.8,30.03,ESE,113,0.5,2.5,94,0.00,,,0.00,WSDL version 430,2013-08-07 13:19:00,
2013-08-07 08:24:00,72.3,70.9,30.03,SE,135,1.1,3.4,96,0.00,,,0.00,WSDL version 430,2013-08-07 13:24:00,
2013-08-07 08:29:00,72.4,71.0,30.03,SSE,168,0.7,3.4,95,0.00,,,0.00,WSDL version 430,2013-08-07 13:29:00,
2013-08-07 08:34:00,72.1,70.4,30.03,West,272,0.0,2.7,94,0.00,,,0.00,WSDL version 430,2013-08-07 13:34:00,
2013-08-07 08:44:00,72.0,70.6,30.06,NW,315,0.0,0.0,96,0.00,,,0.00,WSDL version 430,2013-08-07 13:44:00,
2013-08-07 08:49:00,72.2,71.0,30.06,WSW,248,0.0,0.0,96,0.00,,,0.00,WSDL version 430,2013-08-07 13:49:00,
2013-08-07 08:54:00,73.1,72.3,30.06,SSW,203,0.0,0.0,97,0.00,,,0.00,WSDL version 430,2013-08-07 13:54:00,
2013-08-07 08:59:00,72.8,71.5,30.06,SSE,158,0.1,2.0,96,0.00,,,0.00,WSDL version 430,2013-08-07 13:59:00,
2013-08-07 09:04:00,72.5,71.2,30.06,SSE,158,0.0,2.0,96,0.00,,,0.00,WSDL version 430,2013-08-07 14:04:00,
2013-08-07 09:09:00,72.3,71.0,30.06,SSE,158,0.7,2.2,96,0.00,,,0.00,WSDL version 430,2013-08-07 14:09:00,
2013-08-07 09:14:00,72.2,70.9,30.06,SSE,158,1.3,2.5,96,0.00,,,0.00,WSDL version 430,2013-08-07 14:14:00,
2013-08-07 09:19:00,72.8,71.7,30.06,SSE,158,0.0,2.5,96,0.00,,,0.00,WSDL version 430,2013-08-07 14:19:00,
2013-08-07 09:24:00,72.7,71.4,30.03,SSE,158,1.2,2.9,96,0.00,,,0.00,WSDL version 430,2013-08-07 14:24:00,
2013-08-07 09:29:00,72.5,71.1,30.03,SSW,200,1.0,2.9,96,0.00,,,0.00,WSDL version 430,2013-08-07 14:29:00,
2013-08-07 09:34:00,72.3,71.0,30.03,SE,132,0.7,2.2,96,0.00,,,0.00,WSDL version 430,2013-08-07 14:34:00,
2013-08-07 09:39:00,72.2,70.9,30.03,SE,131,0.0,2.9,96,0.00,,,0.00,WSDL version 430,2013-08-07 14:39:00,
2013-08-07 09:44:00,72.5,71.4,30.03,SW,227,0.4,2.9,96,0.00,,,0.00,WSDL version 430,2013-08-07 14:44:00,
2013-08-07 09:49:00,73.3,72.4,30.03,South,173,0.0,2.7,97,0.00,,,0.00,WSDL version 430,2013-08-07 14:49:00,
2013-08-07 09:54:00,73.1,71.8,30.00,ESE,113,1.3,3.4,96,0.00,,,0.00,WSDL version 430,2013-08-07 14:54:00,
2013-08-07 09:59:00,72.7,71.0,30.00,West,266,0.8,3.4,95,0.00,,,0.00,WSDL version 430,2013-08-07 14:59:00,
2013-08-07 10:04:00,72.4,70.7,30.00,SSW,203,0.4,2.5,94,0.00,,,0.00,WSDL version 430,2013-08-07 15:04:00,
2013-08-07 10:09:00,72.1,70.5,30.00,SW,235,0.0,2.2,94,0.00,,,0.00,WSDL version 430,2013-08-07 15:09:00,
2013-08-07 10:14:00,72.1,70.4,30.00,SSW,203,0.1,2.2,94,0.00,,,0.00,WSDL version 430,2013-08-07 15:14:00,
2013-08-07 10:19:00,72.6,71.4,30.00,SSE,158,1.1,2.2,96,0.00,,,0.00,WSDL version 430,2013-08-07 15:19:00,
2013-08-07 10:24:00,73.5,72.5,30.00,SSE,158,0.3,2.2,96,0.00,,,0.00,WSDL version 430,2013-08-07 15:24:00,
2013-08-07 10:29:00,73.2,71.9,30.00,South,176,1.5,2.2,96,0.00,,,0.00,WSDL version 430,2013-08-07 15:29:00,
2013-08-07 10:34:00,72.7,71.0,30.00,South,172,0.6,2.9,94,0.00,,,0.00,WSDL version 430,2013-08-07 15:34:00,
2013-08-07 10:39:00,72.4,70.7,30.03,SSW,211,0.0,2.9,94,0.00,,,0.00,WSDL version 430,2013-08-07 15:39:00,
2013-08-07 10:44:00,72.2,70.4,30.03,SSE,160,0.3,2.7,94,0.00,,,0.00,WSDL version 430,2013-08-07 15:44:00,
2013-08-07 10:49:00,72.2,70.6,30.03,ENE,68,0.7,2.7,95,0.00,,,0.00,WSDL version 430,2013-08-07 15:49:00,
2013-08-07 10:54:00,73.2,72.1,30.00,SW,215,1.7,3.4,96,0.00,,,0.00,WSDL version 430,2013-08-07 15:54:00,
2013-08-07 10:59:00,73.7,72.3,30.00,SSE,164,1.0,3.4,95,0.00,,,0.00,WSDL version 430,2013-08-07 15:59:00,
2013-08-07 11:04:00,73.6,71.9,30.00,SSE,163,1.5,5.4,94,0.00,,,0.00,WSDL version 430,2013-08-07 16:04:00,
2013-08-07 11:09:00,73.8,72.1,30.00,SE,133,1.5,5.4,94,0.00,,,0.00,WSDL version 430,2013-08-07 16:09:00,
2013-08-07 11:14:00,73.8,71.9,30.00,NW,304,1.5,4.9,94,0.00,,,0.00,WSDL version 430,2013-08-07 16:14:00,
2013-08-07 11:19:00,74.4,72.7,30.00,SW,229,1.8,4.9,94,0.00,,,0.00,WSDL version 430,2013-08-07 16:19:00,
2013-08-07 11:29:00,74.9,72.5,30.03,SSE,164,1.0,6.5,92,0.00,,,0.00,WSDL version 430,2013-08-07 16:29:00,
2013-08-07 11:34:00,75.0,72.6,30.03,SE,133,1.5,3.6,92,0.00,,,0.00,WSDL version 430,2013-08-07 16:34:00,
2013-08-07 11:39:00,74.9,72.3,30.00,SSE,165,1.1,3.6,92,0.00,,,0.00,WSDL version 430,2013-08-07 16:39:00,
2013-08-07 11:44:00,74.7,72.0,30.00,ESE,113,0.5,3.1,91,0.00,,,0.00,WSDL version 430,2013-08-07 16:44:00,
2013-08-07 11:49:00,76.0,73.3,30.00,SW,229,0.9,2.0,91,0.00,,,0.00,WSDL version 430,2013-08-07 16:49:00,
2013-08-07 11:54:00,76.5,73.0,30.00,SSW,209,1.3,2.9,89,0.00,,,0.00,WSDL version 430,2013-08-07 16:54:00,
2013-08-07 11:59:00,76.0,71.7,30.00,SSW,192,0.8,2.9,87,0.00,,,0.00,WSDL version 430,2013-08-07 16:59:00,
2013-08-07 12:04:00,75.8,71.5,30.00,SSW,193,1.2,5.4,87,0.00,,,0.00,WSDL version 430,2013-08-07 17:04:00,
2013-08-07 12:09:00,76.0,71.9,30.00,SSW,200,1.3,5.4,87,0.00,,,0.00,WSDL version 430,2013-08-07 17:09:00,
2013-08-07 12:14:00,77.4,73.1,30.00,WSW,241,1.4,4.3,87,0.00,,,0.00,WSDL version 430,2013-08-07 17:14:00,
2013-08-07 12:19:00,77.1,71.1,30.00,SSE,166,2.4,3.6,82,0.00,,,0.00,WSDL version 430,2013-08-07 17:19:00,
2013-08-07 12:24:00,76.5,70.1,30.00,SW,215,1.5,3.6,81,0.00,,,0.00,WSDL version 430,2013-08-07 17:24:00,
2013-08-07 12:29:00,77.2,70.9,30.00,SW,225,1.8,3.6,81,0.00,,,0.00,WSDL version 430,2013-08-07 17:29:00,
2013-08-07 12:34:00,77.5,70.4,30.00,SSW,194,0.6,3.6,79,0.00,,,0.00,WSDL version 430,2013-08-07 17:34:00,
2013-08-07 12:39:00,77.3,70.2,29.97,SW,223,1.5,2.9,79,0.00,,,0.00,WSDL version 430,2013-08-07 17:39:00,
2013-08-07 12:44:00,77.4,70.4,29.97,SSE,151,1.3,2.9,79,0.00,,,0.00,WSDL version 430,2013-08-07 17:44:00,
2013-08-07 12:49:00,78.1,70.8,29.97,SW,218,2.3,3.4,78,0.00,,,0.00,WSDL version 430,2013-08-07 17:49:00,
2013-08-07 12:54:00,77.6,69.5,30.00,SSW,205,1.5,4.0,76,0.00,,,0.00,WSDL version 430,2013-08-07 17:54:00,
2013-08-07 12:59:00,77.8,69.8,30.00,SSW,198,1.8,4.0,77,0.00,,,0.00,WSDL version 430,2013-08-07 17:59:00,
2013-08-07 13:04:00,78.3,70.5,30.00,West,262,2.9,4.0,77,0.00,,,0.00,WSDL version 430,2013-08-07 18:04:00,
2013-08-07 13:09:00,78.8,71.1,30.00,WSW,239,1.9,4.0,77,0.00,,,0.00,WSDL version 430,2013-08-07 18:09:00,
2013-08-07 13:14:00,78.5,70.4,30.00,SW,233,3.2,5.6,76,0.00,,,0.00,WSDL version 430,2013-08-07 18:14:00,
2013-08-07 13:19:00,77.8,69.2,30.00,SSW,209,2.4,5.6,75,0.00,,,0.00,WSDL version 430,2013-08-07 18:19:00,
2013-08-07 13:24:00,77.5,69.3,30.00,SW,215,2.6,3.6,76,0.00,,,0.00,WSDL version 430,2013-08-07 18:24:00,
2013-08-07 13:29:00,77.4,69.5,30.00,SSW,209,2.2,3.8,77,0.00,,,0.00,WSDL version 430,2013-08-07 18:29:00,
2013-08-07 13:34:00,77.4,69.7,30.00,SW,225,1.9,3.8,77,0.00,,,0.00,WSDL version 430,2013-08-07 18:34:00,
2013-08-07 13:39:00,77.5,70.0,30.00,SW,230,1.8,3.1,78,0.00,,,0.00,WSDL version 430,2013-08-07 18:39:00,
2013-08-07 13:44:00,77.6,70.0,30.00,SW,219,1.5,2.7,78,0.00,,,0.00,WSDL version 430,2013-08-07 18:44:00,
2013-08-07 13:49:00,78.2,70.8,30.00,SW,219,1.7,2.7,78,0.00,,,0.00,WSDL version 430,2013-08-07 18:49:00,
2013-08-07 13:54:00,78.9,71.2,30.00,SSW,207,1.5,2.7,77,0.00,,,0.00,WSDL version 430,2013-08-07 18:54:00,
2013-08-07 13:59:00,78.9,70.9,30.00,SSW,205,1.6,2.7,77,0.00,,,0.00,WSDL version 430,2013-08-07 18:59:00,
2013-08-07 14:04:00,79.6,71.6,30.00,SSW,207,2.1,4.0,77,0.00,,,0.00,WSDL version 430,2013-08-07 19:04:00,
2013-08-07 14:09:00,79.5,70.6,29.97,SSW,207,1.3,4.0,74,0.00,,,0.00,WSDL version 430,2013-08-07 19:09:00,
2013-08-07 14:14:00,79.0,70.2,29.97,SSW,208,1.9,3.6,74,0.00,,,0.00,WSDL version 430,2013-08-07 19:14:00,
2013-08-07 14:19:00,79.5,70.9,29.97,South,185,0.0,3.6,75,0.00,,,0.00,WSDL version 430,2013-08-07 19:19:00,
2013-08-07 14:24:00,79.5,70.9,29.97,SSE,158,0.1,2.2,75,0.00,,,0.00,WSDL version 430,2013-08-07 19:24:00,
2013-08-07 14:29:00,80.0,71.5,29.97,SE,144,0.1,2.2,76,0.00,,,0.00,WSDL version 430,2013-08-07 19:29:00,
2013-08-07 14:34:00,80.3,71.1,29.97,South,180,0.2,1.6,74,0.00,,,0.00,WSDL version 430,2013-08-07 19:34:00,
2013-08-07 14:39:00,79.8,70.4,29.97,South,170,0.4,2.0,73,0.00,,,0.00,WSDL version 430,2013-08-07 19:39:00,
2013-08-07 14:44:00,80.6,70.9,29.97,SSW,198,1.0,2.2,73,0.00,,,0.00,WSDL version 430,2013-08-07 19:44:00,
2013-08-07 14:49:00,80.1,70.1,29.97,WSW,248,0.4,2.2,72,0.00,,,0.00,WSDL version 430,2013-08-07 19:49:00,
2013-08-07 14:54:00,79.4,69.6,30.00,SW,225,0.0,2.0,72,0.00,,,0.00,WSDL version 430,2013-08-07 19:54:00,
2013-08-07 14:59:00,79.9,70.7,30.00,WSW,238,0.4,1.6,74,0.00,,,0.00,WSDL version 430,2013-08-07 19:59:00,
2013-08-07 15:04:00,80.6,70.8,30.00,NNW,340,2.4,3.4,72,0.00,,,0.00,WSDL version 430,2013-08-07 20:04:00,
2013-08-07 15:09:00,80.1,70.3,30.00,WSW,243,1.2,3.4,72,0.00,,,0.00,WSDL version 430,2013-08-07 20:09:00,
2013-08-07 15:14:00,80.0,70.3,30.00,South,172,0.0,2.5,73,0.00,,,0.00,WSDL version 430,2013-08-07 20:14:00,
2013-08-07 15:19:00,80.4,71.4,30.00,NW,309,2.7,4.0,74,0.00,,,0.00,WSDL version 430,2013-08-07 20:19:00,
2013-08-07 15:24:00,80.6,71.1,30.00,NE,45,0.5,4.0,73,0.00,,,0.00,WSDL version 430,2013-08-07 20:24:00,
2013-08-07 15:29:00,80.5,71.1,30.00,NE,45,1.1,2.5,73,0.00,,,0.00,WSDL version 430,2013-08-07 20:29:00,
2013-08-07 15:34:00,80.3,70.8,30.00,NE,45,0.0,2.2,73,0.00,,,0.00,WSDL version 430,2013-08-07 20:34:00,
2013-08-07 15:39:00,80.8,71.4,30.00,NE,45,0.0,0.0,73,0.00,,,0.00,WSDL version 430,2013-08-07 20:39:00,
2013-08-07 15:44:00,80.8,71.1,30.00,NE,45,0.0,0.0,73,0.00,,,0.00,WSDL version 430,2013-08-07 20:44:00,
2013-08-07 15:49:00,80.3,71.1,30.00,NE,45,0.0,2.0,73,0.00,,,0.00,WSDL version 430,2013-08-07 20:49:00,
2013-08-07 15:54:00,80.2,71.2,30.00,NE,45,0.0,2.0,74,0.00,,,0.00,WSDL version 430,2013-08-07 20:54:00,
2013-08-07 15:59:00,80.4,71.8,30.00,NE,45,0.0,1.1,75,0.00,,,0.00,WSDL version 430,2013-08-07 20:59:00,
2013-08-07 16:04:00,80.2,71.6,30.00,NE,45,0.0,0.0,75,0.00,,,0.00,WSDL version 430,2013-08-07 21:04:00,
2013-08-07 16:09:00,80.3,72.2,30.00,NE,45,0.0,0.0,76,0.00,,,0.00,WSDL version 430,2013-08-07 21:09:00,
2013-08-07 16:14:00,80.4,72.1,30.00,NE,45,0.0,0.0,76,0.00,,,0.00,WSDL version 430,2013-08-07 21:14:00,
2013-08-07 16:19:00,80.1,71.9,30.00,NNW,342,0.0,2.5,76,0.00,,,0.00,WSDL version 430,2013-08-07 21:19:00,
2013-08-07 16:24:00,80.2,72.3,30.00,NNW,329,1.1,3.6,77,0.00,,,0.00,WSDL version 430,2013-08-07 21:24:00,
2013-08-07 16:29:00,80.5,72.3,30.00,NW,319,0.9,3.6,76,0.00,,,0.00,WSDL version 430,2013-08-07 21:29:00,
2013-08-07 16:34:00,80.6,72.2,30.00,North,360,1.0,3.1,76,0.00,,,0.00,WSDL version 430,2013-08-07 21:34:00,
2013-08-07 16:39:00,80.9,72.5,30.00,North,354,1.7,3.6,76,0.00,,,0.00,WSDL version 430,2013-08-07 21:39:00,
2013-08-07 16:44:00,81.5,72.3,30.00,NW,315,2.2,6.0,74,0.00,,,0.00,WSDL version 430,2013-08-07 21:44:00,
2013-08-07 16:49:00,81.4,71.5,30.00,NW,323,1.6,6.0,72,0.00,,,0.00,WSDL version 430,2013-08-07 21:49:00,
2013-08-07 16:54:00,81.9,72.2,29.97,NW,323,0.8,4.0,72,0.00,,,0.00,WSDL version 430,2013-08-07 21:54:00,
2013-08-07 16:59:00,82.5,72.0,29.97,North,350,1.9,3.8,71,0.00,,,0.00,WSDL version 430,2013-08-07 21:59:00,
2013-08-07 17:04:00,82.8,71.4,29.97,NW,315,1.2,4.7,69,0.00,,,0.00,WSDL version 430,2013-08-07 22:04:00,
2013-08-07 17:09:00,83.2,71.9,30.00,NW,315,2.5,4.7,69,0.00,,,0.00,WSDL version 430,2013-08-07 22:09:00,
2013-08-07 17:14:00,83.5,71.5,30.00,North,349,2.5,4.0,67,0.00,,,0.00,WSDL version 430,2013-08-07 22:14:00,
2013-08-07 17:19:00,83.4,71.1,30.00,NE,36,1.4,4.0,67,0.00,,,0.00,WSDL version 430,2013-08-07 22:19:00,
2013-08-07 17:24:00,83.6,71.1,29.97,NNE,18,2.0,5.6,66,0.00,,,0.00,WSDL version 430,2013-08-07 22:24:00,
2013-08-07 17:29:00,83.4,70.7,29.97,NW,311,1.5,5.6,66,0.00,,,0.00,WSDL version 430,2013-08-07 22:29:00,
2013-08-07 17:34:00,83.4,70.8,29.97,North,357,2.5,4.0,66,0.00,,,0.00,WSDL version 430,2013-08-07 22:34:00,
2013-08-07 17:39:00,84.1,71.2,29.97,WNW,295,2.4,4.5,65,0.00,,,0.00,WSDL version 430,2013-08-07 22:39:00,
2013-08-07 17:44:00,84.2,70.4,29.97,SSW,194,1.7,5.8,63,0.00,,,0.00,WSDL version 430,2013-08-07 22:44:00,
2013-08-07 17:49:00,84.3,70.1,29.97,NNW,338,2.8,5.8,62,0.00,,,0.00,WSDL version 430,2013-08-07 22:49:00,
2013-08-07 17:54:00,84.8,70.0,29.97,West,270,3.3,4.7,61,0.00,,,0.00,WSDL version 430,2013-08-07 22:54:00,
2013-08-07 17:59:00,85.1,70.2,29.97,NW,307,2.4,4.7,61,0.00,,,0.00,WSDL version 430,2013-08-07 22:59:00,
2013-08-07 18:04:00,85.2,70.4,29.97,NNW,340,1.3,4.3,61,0.00,,,0.00,WSDL version 430,2013-08-07 23:04:00,
2013-08-07 18:09:00,85.5,70.5,29.97,NNW,333,1.7,4.3,61,0.00,,,0.00,WSDL version 430,2013-08-07 23:09:00,
2013-08-07 18:14:00,85.6,70.6,29.97,NW,315,1.3,3.6,61,0.00,,,0.00,WSDL version 430,2013-08-07 23:14:00,
2013-08-07 18:19:00,85.8,71.1,29.97,SSW,203,0.0,2.9,62,0.00,,,0.00,WSDL version 430,2013-08-07 23:19:00,
2013-08-07 18:24:00,87.0,71.0,29.97,WNW,286,1.9,3.6,59,0.00,,,0.00,WSDL version 430,2013-08-07 23:24:00,
2013-08-07 18:29:00,87.1,70.3,29.97,WNW,302,0.2,3.6,58,0.00,,,0.00,WSDL version 430,2013-08-07 23:29:00,
2013-08-07 18:34:00,87.0,70.2,29.97,NW,311,1.5,2.5,57,0.00,,,0.00,WSDL version 430,2013-08-07 23:34:00,
2013-08-07 18:39:00,86.8,70.4,29.97,West,278,1.0,2.5,58,0.00,,,0.00,WSDL version 430,2013-08-07 23:39:00,
2013-08-07 18:44:00,86.6,70.9,29.97,NW,317,0.9,2.7,60,0.00,,,0.00,WSDL version 430,2013-08-07 23:44:00,
2013-08-07 18:49:00,86.5,71.0,29.97,NW,317,0.5,3.6,60,0.00,,,0.00,WSDL version 430,2013-08-07 23:49:00,
2013-08-07 18:54:00,86.2,70.1,29.97,NW,304,1.5,3.6,59,0.00,,,0.00,WSDL version 430,2013-08-07 23:54:00,
2013-08-07 18:59:00,86.0,69.9,29.97,WNW,303,0.3,2.5,59,0.00,,,0.00,WSDL version 430,2013-08-07 23:59:00,
2013-08-07 19:04:00,85.5,70.1,29.97,NW,315,1.2,2.5,60,0.00,,,0.00,WSDL version 430,2013-08-08 00:04:00,
2013-08-07 19:09:00,85.1,70.4,29.97,NNW,344,0.5,2.2,62,0.00,,,0.00,WSDL version 430,2013-08-08 00:09:00,
2013-08-07 19:14:00,84.7,70.1,29.97,WNW,284,1.0,2.0,62,0.00,,,0.00,WSDL version 430,2013-08-08 00:14:00,
2013-08-07 19:19:00,84.1,69.7,29.97,West,270,0.0,2.0,62,0.00,,,0.00,WSDL version 430,2013-08-08 00:19:00,
2013-08-07 19:24:00,83.9,70.1,29.97,NW,315,0.0,1.6,63,0.00,,,0.00,WSDL version 430,2013-08-08 00:24:00,
2013-08-07 19:29:00,83.8,70.3,29.97,NW,315,0.0,1.6,64,0.00,,,0.00,WSDL version 430,2013-08-08 00:29:00,
2013-08-07 19:34:00,83.0,69.8,29.97,NW,315,0.0,0.0,65,0.00,,,0.00,WSDL version 430,2013-08-08 00:34:00,
2013-08-07 19:39:00,82.3,69.9,29.97,NW,315,0.0,0.0,66,0.00,,,0.00,WSDL version 430,2013-08-08 00:39:00,
2013-08-07 19:45:00,82.2,70.2,29.97,NW,315,0.0,0.0,67,0.00,,,0.00,WSDL version 430,2013-08-08 00:45:00,
2013-08-07 19:50:00,81.6,69.8,29.97,NW,315,0.0,0.0,68,0.00,,,0.00,WSDL version 430,2013-08-08 00:50:00,
2013-08-07 19:55:00,81.2,70.0,29.97,NW,315,0.0,0.0,69,0.00,,,0.00,WSDL version 430,2013-08-08 00:55:00,
2013-08-07 20:00:00,81.0,70.3,29.97,NW,315,0.0,0.0,70,0.00,,,0.00,WSDL version 430,2013-08-08 01:00:00,
2013-08-07 20:05:00,80.5,70.3,29.97,NW,315,0.0,0.0,71,0.00,,,0.00,WSDL version 430,2013-08-08 01:05:00,
2013-08-07 20:10:00,80.1,70.3,29.97,NW,315,0.0,0.0,72,0.00,,,0.00,WSDL version 430,2013-08-08 01:10:00,
2013-08-07 20:15:00,79.8,70.4,29.97,NW,315,0.0,0.0,73,0.00,,,0.00,WSDL version 430,2013-08-08 01:15:00,
2013-08-07 20:20:00,79.2,70.2,29.97,NW,315,0.0,0.0,74,0.00,,,0.00,WSDL version 430,2013-08-08 01:20:00,
2013-08-07 20:25:00,79.1,70.6,29.97,NW,315,0.0,0.0,75,0.00,,,0.00,WSDL version 430,2013-08-08 01:25:00,
2013-08-07 20:30:00,79.2,70.9,29.97,NW,315,0.0,0.0,76,0.00,,,0.00,WSDL version 430,2013-08-08 01:30:00,
2013-08-07 20:35:00,78.8,70.8,30.00,NW,315,0.0,0.0,77,0.00,,,0.00,WSDL version 430,2013-08-08 01:35:00,
2013-08-07 20:40:00,78.6,70.8,30.00,NW,315,0.0,0.0,77,0.00,,,0.00,WSDL version 430,2013-08-08 01:40:00,
2013-08-07 20:45:00,78.4,70.9,30.00,NW,315,0.0,0.0,78,0.00,,,0.00,WSDL version 430,2013-08-08 01:45:00,
2013-08-07 20:50:00,77.9,70.5,29.97,NW,315,0.0,0.0,78,0.00,,,0.00,WSDL version 430,2013-08-08 01:50:00,
2013-08-07 20:55:00,77.7,70.6,29.97,NW,315,0.0,0.0,79,0.00,,,0.00,WSDL version 430,2013-08-08 01:55:00,
2013-08-07 21:00:00,77.4,70.4,29.97,NW,315,0.0,0.0,79,0.00,,,0.00,WSDL version 430,2013-08-08 02:00:00,
2013-08-07 21:05:00,77.1,70.4,30.00,NW,315,0.0,0.0,80,0.00,,,0.00,WSDL version 430,2013-08-08 02:05:00,
2013-08-07 21:10:00,77.4,70.9,30.00,NW,315,0.0,0.0,80,0.00,,,0.00,WSDL version 430,2013-08-08 02:10:00,
2013-08-07 21:15:00,77.8,71.6,30.00,NW,315,0.0,0.0,81,0.00,,,0.00,WSDL version 430,2013-08-08 02:15:00,
2013-08-07 21:20:00,77.7,71.5,30.03,NW,315,0.0,0.0,81,0.00,,,0.00,WSDL version 430,2013-08-08 02:20:00,
2013-08-07 21:25:00,78.4,72.9,30.03,NW,315,0.0,0.0,83,0.00,,,0.00,WSDL version 430,2013-08-08 02:25:00,
2013-08-07 21:30:00,78.3,71.9,30.03,NW,315,0.0,0.0,81,0.00,,,0.00,WSDL version 430,2013-08-08 02:30:00,
2013-08-07 21:35:00,77.8,71.1,30.00,NW,315,0.0,0.0,80,0.00,,,0.00,WSDL version 430,2013-08-08 02:35:00,
2013-08-07 21:40:00,77.6,71.2,30.00,NW,315,0.0,0.0,80,0.00,,,0.00,WSDL version 430,2013-08-08 02:40:00,
2013-08-07 21:45:00,77.2,70.7,30.00,NW,315,0.0,0.0,80,0.00,,,0.00,WSDL version 430,2013-08-08 02:45:00,
2013-08-07 21:50:00,77.5,71.5,30.00,WSW,246,0.0,0.0,82,0.00,,,0.00,WSDL version 430,2013-08-08 02:50:00,
2013-08-07 21:55:00,78.2,72.4,30.00,SW,225,0.0,0.0,82,0.00,,,0.00,WSDL version 430,2013-08-08 02:55:00,
2013-08-07 22:00:00,77.8,71.6,30.00,SW,225,0.0,0.0,81,0.00,,,0.00,WSDL version 430,2013-08-08 03:00:00,
2013-08-07 22:05:00,78.4,72.7,30.00,SW,225,0.0,0.0,83,0.00,,,0.00,WSDL version 430,2013-08-08 03:05:00,
2013-08-07 22:10:00,78.6,72.2,30.00,SW,225,0.0,0.0,81,0.00,,,0.00,WSDL version 430,2013-08-08 03:10:00,
2013-08-07 22:15:00,78.3,71.7,30.00,SW,225,0.0,0.0,80,0.00,,,0.00,WSDL version 430,2013-08-08 03:15:00,
2013-08-07 22:20:00,78.2,71.5,30.00,SW,225,0.0,0.0,80,0.00,,,0.00,WSDL version 430,2013-08-08 03:20:00,
2013-08-07 22:25:00,77.8,71.1,30.00,SW,225,0.0,0.0,80,0.00,,,0.00,WSDL version 430,2013-08-08 03:25:00,
2013-08-07 22:30:00,77.9,71.7,30.00,SW,225,0.0,0.0,81,0.00,,,0.00,WSDL version 430,2013-08-08 03:30:00,
2013-08-07 22:35:00,78.1,72.0,30.00,SW,225,0.0,0.0,81,0.00,,,0.00,WSDL version 430,2013-08-08 03:35:00,
2013-08-07 22:40:00,77.7,71.4,30.00,SW,225,0.0,0.0,81,0.00,,,0.00,WSDL version 430,2013-08-08 03:40:00,
2013-08-07 22:45:00,78.0,72.3,30.00,SW,225,0.0,0.0,83,0.00,,,0.00,WSDL version 430,2013-08-08 03:45:00,
2013-08-07 22:50:00,78.2,72.1,29.97,SW,225,0.0,0.0,81,0.00,,,0.00,WSDL version 430,2013-08-08 03:50:00,
2013-08-07 23:00:00,77.7,71.4,29.97,SW,225,0.0,0.0,81,0.00,,,0.00,WSDL version 430,2013-08-08 04:00:00,
2013-08-07 23:05:00,77.5,71.2,30.00,SW,225,0.0,0.0,81,0.00,,,0.00,WSDL version 430,2013-08-08 04:05:00,
2013-08-07 23:10:00,77.3,71.3,30.00,SW,225,0.0,0.0,82,0.00,,,0.00,WSDL version 430,2013-08-08 04:10:00,
2013-08-07 23:15:00,77.3,71.3,30.00,SW,225,0.0,0.0,82,0.00,,,0.00,WSDL version 430,2013-08-08 04:15:00,
2013-08-07 23:20:00,76.9,70.9,29.97,SW,225,0.0,0.0,82,0.00,,,0.00,WSDL version 430,2013-08-08 04:20:00,
2013-08-07 23:25:00,76.9,71.3,29.97,SW,225,0.0,0.0,83,0.00,,,0.00,WSDL version 430,2013-08-08 04:25:00,
2013-08-07 23:30:00,76.7,71.1,29.97,SW,225,0.0,0.0,83,0.00,,,0.00,WSDL version 430,2013-08-08 04:30:00,
2013-08-07 23:35:00,76.4,70.8,30.00,SW,225,0.0,0.0,83,0.00,,,0.00,WSDL version 430,2013-08-08 04:35:00,
2013-08-07 23:40:00,76.4,71.0,30.00,SW,225,0.0,0.0,83,0.00,,,0.00,WSDL version 430,2013-08-08 04:40:00,
2013-08-07 23:50:00,76.0,71.0,30.00,SW,225,0.0,0.0,84,0.00,,,0.00,WSDL version 430,2013-08-08 04:50:00,
2013-08-07 23:55:00,76.1,71.2,30.00,SW,225,0.0,0.0,85,0.00,,,0.00,WSDL version 430,2013-08-08 04:55:00,